Wind_Speed
11 10 11 11 11 12 12 13 13 13 14 15 15 16 17 17 18 18 18 19 20 20 21 21 22 23 24 24 25 25 25 25 25 26 27 27 27 27 27 28 29 29 29
11 11 11 12 12 13 14 14 13 14 14 15 15 16 17 17 18 18 18 18 19 20 21 22 23 24 25 26 26 27 27 27 27 27 28 29 29 29 28 29 29 30 31
10 11 12 13 14 14 14 14 14 14 15 15 15 16 16 17 18 19 19 20 20 21 21 22 24 25 25 26 26 27 27 27 28 28 29 30 30 30 30 31 31 31 32
11 12 12 13 14 15 15 15 15 15 15 15 15 16 17 18 18 19 20 21 21 21 22 23 24 24 25 25 26 26 27 28 29 30 29 30 31 32 32 31 32 33 33
11 11 12 13 13 14 14 15 16 15 15 16 16 17 17 18 19 19 20 20 21 22 22 23 24 25 25 25 25 26 27 28 29 29 30 30 31 31 31 31 32 33 34
11 12 12 12 12 13 14 15 15 15 16 16 16 16 16 17 18 19 20 21 21 22 22 22 22 23 25 25 26 26 27 28 30 31 31 31 30 31 31 32 33 34 34
12 13 13 12 12 13 13 13 15 15 15 16 16 16 16 17 18 19 20 21 21 21 21 22 22 23 24 24 25 27 28 29 30 32 30 30 31 32 32 33 34 35 35
13 13 13 13 13 13 14 15 16 16 16 16 16 17 17 17 18 19 20 20 21 21 22 23 23 24 24 24 25 25 26 27 28 29 30 30 32 32 33 34 35 36 37
13 14 14 13 14 14 14 15 16 16 16 17 17 18 19 19 20 20 21 21 22 23 23 24 24 24 24 25 25 25 26 27 27 28 29 30 30 31 32 33 35 36 36
13 14 15 15 15 15 15 16 16 17 17 17 18 18 19 19 20 20 21 22 23 23 23 24 24 25 26 26 27 27 27 28 29 29 30 31 31 32 33 35 36 37 38
14 15 14 15 15 16 16 16 17 17 17 18 18 19 19 20 20 21 22 22 23 23 24 25 26 27 27 27 27 28 29 30 31 31 32 33 34 34 35 36 37 38 38
16 16 16 16 16 17 17 17 18 18 19 19 19 19 20 20 21 22 23 23 23 24 25 26 27 27 28 28 29 30 30 31 32 32 33 34 34 35 36 36 36 37 38
17 17 17 17 17 18 18 18 19 19 19 20 20 20 21 21 22 22 23 24 24 25 26 26 27 28 28 28 29 30 31 31 32 33 33 34 34 35 35 36 36 36 37
18 19 19 19 19 19 19 19 20 20 20 21 21 21 21 22 22 22 23 23 24 25 26 27 28 29 29 30 30 31 31 31 31 32 33 33 34 35 35 36 36 36 37
19 20 20 20 20 21 21 21 21 21 21 21 21 21 22 22 23 23 23 24 25 26 27 28 29 29 30 30 31 31 31 31 32 32 33 34 34 35 35 35 36 36 37
20 21 21 21 21 22 22 22 22 22 22 22 22 22 23 24 24 25 25 26 27 28 28 29 29 30 30 30 31 31 32 32 33 33 34 35 35 35 35 36 36 37 37
21 21 22 22 22 22 22 22 22 23 23 23 23 24 24 25 26 26 27 27 28 29 29 29 30 31 31 31 31 32 32 33 33 33 34 34 35 36 36 37 37 38 38
22 22 22 22 22 22 23 23 23 23 24 24 25 26 26 27 27 27 27 28 29 29 29 30 31 31 32 32 32 33 33 33 33 34 35 36 36 37 38 38 38 38 38
22 23 23 22 23 23 23 24 24 25 25 25 26 26 27 27 27 27 28 28 29 30 30 31 31 31 32 32 33 33 34 34 34 35 36 37 38 38 38 38 38 38 37
23 23 23 23 24 24 24 25 25 25 26 26 27 27 27 27 27 28 28 29 30 30 30 30 31 31 31 32 33 34 34 35 36 36 37 37 37 37 37 37 37 36 36
23 23 23 23 24 25 26 26 26 26 27 27 27 27 27 27 28 28 29 29 29 29 30 30 31 31 32 33 33 34 35 35 35 36 36 36 35 35 35 34 34 34 34
23 23 23 24 25 26 26 26 26 26 26 26 26 26 26 26 27 28 28 29 29 30 30 31 31 32 33 34 34 35 35 35 35 35 35 34 34 33 33 33 33 32 32
22 23 23 24 25 25 24 25 25 26 25 25 26 26 26 26 27 29 29 30 30 31 31 32 32 33 34 34 35 35 34 34 34 34 34 34 33 32 32 31 31 31 30
21 22 23 23 23 23 24 25 25 25 25 25 26 26 26 26 28 29 29 30 31 31 31 32 33 34 34 34 34 34 34 33 33 33 33 32 32 31 31 30 29 29 28
21 22 22 21 22 22 23 23 24 24 25 25 26 26 27 28 29 29 29 30 31 31 32 32 33 33 33 33 32 32 32 31 31 31 30 30 30 29 29 29 28 27 27
19 20 20 20 21 21 21 22 23 24 25 25 25 26 27 28 28 29 29 30 30 31 31 31 32 31 31 30 30 30 30 29 29 29 28 28 28 28 27 27 26 26 25
Wind_Direction
277 273 269 261 257 258 261 261 262 263 263 265 264 261 257 257 260 263 261 260 262 265 266 266 267 268 269 269 270 270 270 271 270 270 273 275 276 276 275 273 271 272 273
273 270 268 266 264 263 266 266 267 268 268 270 266 263 258 258 261 265 263 262 264 266 268 268 270 271 270 269 270 270 271 272 272 271 273 274 275 274 273 272 272 273 275
275 272 269 267 267 265 266 268 271 272 272 273 272 268 261 260 262 264 265 266 268 268 270 271 272 274 274 274 274 273 272 272 273 274 274 275 276 274 273 272 273 275 276
288 282 277 274 271 270 268 269 271 272 273 275 273 270 265 263 264 265 267 269 269 270 272 274 275 276 276 275 276 276 274 275 275 276 275 277 278 277 275 274 274 275 275
291 289 283 280 276 274 272 270 270 272 272 274 274 273 269 266 267 267 268 270 273 273 275 276 276 277 277 277 277 277 277 276 277 279 280 279 279 278 276 276 277 276 277
293 293 290 285 282 281 278 272 270 271 273 274 276 278 273 270 270 271 271 272 274 275 279 282 282 281 279 278 278 279 279 279 279 279 279 280 278 276 276 276 277 278 279
291 292 291 289 288 284 281 276 273 271 273 274 276 277 276 273 273 274 276 277 277 278 281 283 284 285 284 282 282 281 282 282 280 280 281 279 278 278 278 278 277 279 280
288 289 290 288 287 284 284 280 276 276 275 278 278 278 278 276 277 277 278 280 281 282 283 284 285 285 285 283 284 285 286 285 284 283 282 283 282 281 280 280 280 281 281
288 287 288 288 286 287 286 286 282 281 279 278 281 281 279 278 279 279 281 282 281 281 282 284 286 287 286 286 286 286 286 286 285 285 286 285 285 285 285 284 285 284 284
291 288 289 288 291 290 289 288 287 285 283 280 280 283 282 282 282 283 283 285 286 285 284 286 288 288 288 289 288 287 287 286 287 287 286 286 287 287 287 287 288 288 287
292 292 290 290 291 290 289 288 289 288 286 285 283 285 286 284 284 284 285 286 287 288 287 288 289 290 290 290 289 288 289 288 288 289 289 289 290 290 290 289 289 288 288
291 292 292 292 291 291 290 288 287 286 285 284 285 287 287 287 286 286 287 287 287 289 289 289 290 291 291 291 292 291 291 290 290 290 290 291 292 292 292 291 291 290 290
290 291 292 291 291 292 291 289 286 284 284 284 285 286 286 287 287 287 288 288 287 287 289 289 290 292 292 293 293 292 291 291 291 292 292 293 293 294 294 293 293 293 293
289 290 290 289 289 289 289 289 289 287 285 284 285 286 287 287 287 288 289 290 289 289 290 291 292 295 295 295 295 295 294 294 294 294 295 295 295 295 295 295 295 294 295
288 289 290 290 290 289 289 289 288 287 287 287 287 288 288 289 289 290 292 293 293 292 293 295 296 296 296 296 297 296 296 296 296 296 296 297 297 298 297 297 297 298 299
285 286 287 288 288 287 287 288 287 286 286 287 288 288 288 290 291 291 292 293 294 295 296 296 297 298 297 297 297 297 297 297 297 297 297 297 298 299 299 299 299 299 299
283 285 285 286 285 285 285 286 286 286 287 289 289 289 289 289 290 290 292 294 295 297 297 298 298 298 298 298 298 297 298 298 298 299 299 299 300 300 300 300 300 301 301
282 284 285 284 283 284 285 286 286 287 288 288 289 289 289 289 290 291 292 294 296 297 298 298 298 298 298 298 298 298 299 299 299 300 300 300 300 300 301 301 301 301 301
282 283 283 282 282 283 284 285 286 287 287 288 290 290 290 291 291 292 294 295 297 298 299 299 299 299 299 300 300 300 300 300 301 301 301 301 301 301 301 301 301 301 301
281 281 281 281 283 284 286 286 287 287 287 288 289 290 292 293 294 295 296 297 298 299 300 300 300 300 300 301 301 301 302 302 302 303 303 302 302 302 302 302 301 301 301
280 280 281 283 284 285 286 286 286 287 289 290 291 291 292 292 293 295 296 298 300 302 302 302 301 301 301 302 302 303 303 304 304 305 305 305 305 304 304 303 303 302 302
279 281 283 283 285 286 286 286 288 290 291 292 292 292 292 293 295 297 298 299 301 302 302 302 302 302 303 304 304 304 304 304 304 305 306 307 307 307 306 306 305 305 304
282 284 284 285 285 285 286 288 290 292 292 291 291 292 293 294 296 298 299 300 302 302 303 304 304 304 304 304 304 303 303 304 305 305 306 306 307 307 307 307 306 306 306
285 286 286 287 286 286 288 290 291 292 292 293 293 293 293 295 297 299 300 300 302 304 305 306 306 307 307 307 306 306 305 304 305 305 306 307 307 308 308 308 308 308 308
285 287 289 288 289 289 291 293 294 294 294 294 294 295 295 297 298 299 302 304 305 306 307 308 308 309 309 309 308 307 308 308 308 308 308 309 309 309 310 310 310 310 311
290 290 291 291 293 293 294 296 298 298 297 296 297 299 300 300 300 301 303 305 306 307 308 310 310 311 311 311 310 310 310 310 310 311 311 311 311 311 312 312 313 312 312
Height
5866 5866 5866 5866 5866 5867 5867 5868 5868 5867 5867 5868 5867 5867 5867 5868 5868 5869 5869 5869 5870 5870 5870 5870 5870 5870 5870 5870 5869 5869 5869 5868 5868 5868 5867 5866 5865 5864 5863 5863 5862 5861 5861
5864 5863 5863 5864 5864 5864 5864 5864 5864 5864 5864 5864 5863 5863 5863 5864 5864 5864 5864 5865 5865 5865 5865 5865 5865 5864 5864 5864 5863 5863 5862 5862 5861 5861 5860 5859 5858 5857 5856 5856 5855 5854 5853
5862 5861 5860 5860 5860 5861 5861 5861 5861 5861 5860 5860 5859 5859 5859 5859 5860 5860 5860 5860 5860 5860 5860 5859 5859 5858 5858 5857 5856 5856 5855 5855 5854 5854 5853 5852 5851 5850 5849 5848 5847 5846 5845
5859 5858 5857 5857 5857 5857 5857 5857 5857 5857 5856 5856 5855 5855 5855 5855 5855 5855 5855 5855 5855 5854 5854 5853 5853 5852 5851 5850 5850 5849 5848 5848 5847 5846 5845 5844 5843 5842 5841 5840 5839 5838 5837
5856 5855 5854 5853 5853 5853 5853 5853 5853 5853 5852 5852 5851 5851 5851 5851 5851 5850 5850 5850 5849 5849 5848 5847 5846 5845 5844 5843 5842 5842 5841 5840 5839 5838 5837 5836 5835 5833 5832 5831 5830 5828 5827
5853 5852 5851 5850 5849 5849 5849 5849 5849 5848 5848 5848 5847 5847 5846 5846 5846 5846 5845 5844 5844 5843 5842 5841 5840 5839 5838 5837 5836 5835 5833 5832 5832 5830 5829 5828 5827 5825 5824 5822 5821 5819 5818
5851 5850 5848 5847 5846 5845 5845 5845 5845 5844 5844 5844 5843 5843 5842 5842 5841 5841 5840 5839 5839 5838 5837 5836 5834 5833 5832 5830 5829 5828 5826 5825 5824 5822 5821 5820 5818 5817 5815 5814 5812 5810 5809
5848 5847 5846 5845 5843 5842 5842 5841 5841 5840 5840 5839 5839 5838 5838 5837 5836 5836 5835 5834 5833 5832 5831 5830 5829 5827 5826 5824 5823 5821 5819 5818 5816 5814 5813 5812 5810 5808 5806 5805 5803 5800 5799
5844 5844 5843 5842 5841 5840 5839 5838 5836 5836 5835 5835 5834 5834 5833 5832 5831 5831 5830 5829 5828 5827 5825 5824 5823 5821 5819 5818 5816 5815 5813 5811 5809 5807 5806 5804 5802 5799 5797 5795 5793 5791 5788
5841 5840 5839 5838 5837 5836 5835 5834 5833 5832 5831 5830 5830 5829 5828 5827 5826 5825 5824 5823 5822 5821 5820 5818 5817 5815 5813 5811 5810 5808 5806 5804 5802 5800 5798 5796 5793 5791 5788 5786 5783 5781 5778
5837 5837 5836 5834 5833 5832 5831 5830 5829 5828 5827 5826 5825 5824 5823 5822 5821 5820 5819 5818 5816 5815 5814 5812 5811 5809 5807 5805 5803 5801 5799 5797 5794 5792 5789 5787 5784 5782 5779 5776 5773 5770 5767
5834 5833 5831 5830 5829 5828 5827 5826 5824 5823 5822 5822 5820 5819 5818 5817 5816 5815 5813 5812 5811 5809 5808 5806 5804 5802 5800 5798 5795 5793 5791 5788 5786 5783 5780 5778 5775 5772 5769 5766 5763 5760 5757
5829 5828 5827 5826 5825 5824 5822 5821 5820 5819 5818 5816 5815 5814 5813 5812 5810 5809 5807 5806 5804 5803 5801 5799 5797 5795 5792 5790 5787 5785 5782 5780 5777 5774 5771 5768 5765 5762 5759 5755 5752 5749 5746
5824 5823 5822 5821 5820 5819 5817 5816 5815 5813 5812 5811 5810 5809 5807 5806 5805 5803 5801 5800 5798 5796 5794 5792 5790 5787 5785 5782 5779 5777 5774 5771 5768 5766 5762 5759 5756 5752 5749 5746 5742 5739 5736
5819 5818 5817 5816 5814 5813 5812 5811 5810 5808 5807 5805 5804 5803 5801 5800 5799 5797 5795 5793 5791 5790 5787 5785 5782 5780 5777 5774 5771 5769 5766 5763 5760 5757 5753 5750 5747 5743 5740 5736 5733 5729 5725
5814 5813 5811 5810 5809 5808 5807 5805 5804 5803 5801 5799 5798 5797 5795 5794 5792 5790 5788 5787 5785 5782 5780 5778 5775 5772 5769 5767 5764 5761 5757 5754 5751 5748 5744 5741 5737 5734 5730 5726 5723 5719 5715
5808 5807 5806 5804 5803 5802 5801 5799 5798 5797 5795 5794 5792 5791 5789 5788 5786 5784 5782 5780 5777 5775 5773 5770 5767 5765 5762 5759 5755 5752 5749 5745 5742 5739 5735 5731 5728 5724 5720 5717 5713 5709 5705
5802 5801 5800 5798 5797 5796 5795 5793 5792 5790 5789 5787 5786 5784 5782 5781 5779 5777 5775 5772 5770 5767 5765 5762 5759 5756 5753 5750 5746 5743 5740 5736 5733 5729 5726 5722 5718 5714 5710 5706 5702 5698 5694
5795 5794 5793 5792 5791 5790 5788 5787 5785 5784 5782 5781 5779 5777 5775 5773 5771 5769 5767 5765 5762 5759 5757 5754 5751 5747 5744 5741 5738 5734 5731 5727 5723 5720 5716 5712 5707 5703 5699 5695 5691 5687 5683
5789 5788 5787 5785 5784 5783 5781 5780 5778 5777 5775 5774 5772 5770 5768 5766 5764 5761 5759 5757 5754 5751 5748 5745 5742 5739 5735 5732 5729 5725 5721 5717 5713 5709 5705 5701 5696 5692 5688 5684 5680 5676 5672
5782 5781 5780 5778 5777 5776 5774 5773 5771 5770 5768 5766 5764 5762 5760 5758 5756 5754 5751 5749 5746 5743 5740 5737 5733 5730 5727 5723 5720 5716 5712 5708 5703 5699 5695 5690 5686 5682 5678 5674 5670 5666 5662
5775 5774 5773 5772 5770 5769 5767 5766 5764 5762 5760 5758 5756 5754 5752 5750 5748 5746 5743 5741 5738 5735 5732 5728 5725 5722 5718 5714 5710 5706 5702 5698 5694 5690 5685 5681 5677 5672 5668 5665 5661 5657 5653
5768 5767 5766 5765 5763 5762 5760 5759 5757 5755 5753 5751 5749 5747 5745 5743 5741 5738 5735 5733 5730 5726 5723 5720 5716 5712 5708 5704 5700 5696 5692 5688 5684 5680 5676 5672 5667 5664 5660 5656 5652 5649 5645
5761 5760 5759 5758 5756 5755 5753 5752 5750 5748 5746 5744 5742 5740 5738 5736 5733 5731 5728 5725 5721 5718 5715 5711 5707 5703 5699 5695 5691 5686 5682 5678 5674 5670 5666 5663 5659 5655 5651 5648 5644 5641 5637
5755 5754 5753 5751 5750 5748 5747 5745 5743 5741 5739 5737 5735 5733 5731 5728 5726 5723 5720 5717 5713 5710 5706 5702 5698 5694 5690 5686 5681 5677 5673 5669 5665 5662 5658 5655 5651 5647 5644 5640 5637 5633 5630
5750 5748 5747 5746 5744 5742 5740 5739 5737 5735 5732 5730 5728 5725 5723 5720 5718 5715 5712 5708 5705 5701 5697 5694 5690 5685 5681 5677 5673 5669 5666 5662 5658 5654 5650 5647 5644 5640 5637 5633 5630 5627 5624